Hourly Weather New Delhi

Today, 24 July, Saturday

Time Temperature Precipitation Wind Pressure Humidity
00:00 +34°C° 0.1 mm 3 mps 729 mmHg 67%
01:00 +33°C° 0.1 mm 3 mps 729 mmHg 69%
02:00 +33°C° 0.1 mm 3 mps 729 mmHg 70%
03:00 +32°C° 0 mm 2 mps 729 mmHg 70%
04:00 +31°C° 0 mm 2 mps 729 mmHg 70%
05:00 +32°C° 0 mm 2 mps 729 mmHg 71%
06:00 +32°C° 0 mm 2 mps 730 mmHg 67%
07:00 +34°C° 0 mm 2 mps 730 mmHg 64%
08:00 +35°C° 0 mm 2 mps 730 mmHg 61%
09:00 +36°C° 0 mm 2 mps 730 mmHg 56%
10:00 +38°C° 0 mm 2 mps 730 mmHg 50%
11:00 +39°C° 0 mm 3 mps 730 mmHg 47%
12:00 +39°C° 0 mm 3 mps 730 mmHg 44%
13:00 +40°C° 0 mm 3 mps 729 mmHg 42%
14:00 +40°C° 0 mm 3 mps 729 mmHg 40%
15:00 +40°C° 0 mm 3 mps 728 mmHg 41%
16:00 +40°C° 0 mm 2 mps 728 mmHg 42%
17:00 +39°C° 0 mm 2 mps 728 mmHg 44%
18:00 +38°C° 0 mm 2 mps 728 mmHg 47%
19:00 +37°C° 0 mm 3 mps 729 mmHg 51%
20:00 +37°C° 0 mm 3 mps 729 mmHg 54%
21:00 +36°C° 0 mm 3 mps 729 mmHg 56%
22:00 +36°C° 0 mm 3 mps 729 mmHg 57%
23:00 +35°C° 0 mm 3 mps 730 mmHg 59%

Tomorrow, 25 July, Sunday

Time Temperature Precipitation Wind Pressure Humidity
00:00 +35°C° 0 mm 3 mps 729 mmHg 60%
01:00 +35°C° 0 mm 3 mps 729 mmHg 60%
02:00 +35°C° 0 mm 3 mps 729 mmHg 61%
03:00 +34°C° 0 mm 3 mps 729 mmHg 62%
04:00 +34°C° 0 mm 3 mps 729 mmHg 63%
05:00 +34°C° 0 mm 3 mps 729 mmHg 64%
06:00 +35°C° 0 mm 3 mps 730 mmHg 62%
07:00 +35°C° 0 mm 3 mps 730 mmHg 61%
08:00 +35°C° 0 mm 3 mps 730 mmHg 59%
09:00 +36°C° 0 mm 3 mps 730 mmHg 55%
10:00 +38°C° 0 mm 3 mps 730 mmHg 50%
11:00 +39°C° 0 mm 3 mps 730 mmHg 46%
12:00 +40°C° 0 mm 2 mps 730 mmHg 43%
13:00 +40°C° 0 mm 2 mps 729 mmHg 40%
14:00 +41°C° 0 mm 2 mps 728 mmHg 37%
15:00 +40°C° 0 mm 2 mps 728 mmHg 39%
16:00 +40°C° 0 mm 2 mps 728 mmHg 42%
17:00 +39°C° 0 mm 2 mps 728 mmHg 44%
18:00 +38°C° 0 mm 3 mps 728 mmHg 46%
19:00 +38°C° 0 mm 3 mps 728 mmHg 48%
20:00 +38°C° 0 mm 3 mps 728 mmHg 50%
21:00 +37°C° 0 mm 3 mps 728 mmHg 51%
22:00 +37°C° 0 mm 4 mps 728 mmHg 52%
23:00 +37°C° 0 mm 4 mps 729 mmHg 54%

Day after tomorrow, 26 July, Monday

Time Temperature Precipitation Wind Pressure Humidity
00:00 +36°C° 0 mm 4 mps 728 mmHg 55%
01:00 +36°C° 0 mm 3 mps 728 mmHg 57%
02:00 +35°C° 0 mm 3 mps 728 mmHg 58%
03:00 +35°C° 0 mm 3 mps 728 mmHg 59%
04:00 +35°C° 0 mm 3 mps 728 mmHg 61%
05:00 +34°C° 0 mm 3 mps 728 mmHg 63%
06:00 +34°C° 0 mm 3 mps 729 mmHg 63%
07:00 +34°C° 0 mm 3 mps 729 mmHg 63%
08:00 +34°C° 0 mm 3 mps 729 mmHg 64%
09:00 +34°C° 0.3 mm 4 mps 729 mmHg 67%
10:00 +33°C° 0.3 mm 4 mps 729 mmHg 70%
11:00 +33°C° 0.3 mm 4 mps 730 mmHg 73%
12:00 +31°C° 2.3 mm 3 mps 729 mmHg 75%
13:00 +31°C° 2.3 mm 3 mps 729 mmHg 77%
14:00 +30°C° 2.3 mm 2 mps 729 mmHg 79%
15:00 +31°C° 0.2 mm 2 mps 729 mmHg 77%
16:00 +31°C° 0.2 mm 2 mps 729 mmHg 75%
17:00 +31°C° 0.2 mm 2 mps 728 mmHg 74%
18:00 +31°C° 0 mm 2 mps 728 mmHg 74%
19:00 +31°C° 0 mm 2 mps 729 mmHg 74%
20:00 +31°C° 0 mm 2 mps 729 mmHg 75%
21:00 +31°C° 0 mm 2 mps 729 mmHg 75%
22:00 +31°C° 0 mm 2 mps 729 mmHg 75%
23:00 +31°C° 0 mm 2 mps 729 mmHg 76%

27 July, Tuesday

Time Temperature Precipitation Wind Pressure Humidity
00:00 +31°C° 0 mm 1 mps 729 mmHg 75%
01:00 +31°C° 0 mm 1 mps 728 mmHg 75%
02:00 +31°C° 0 mm 1 mps 728 mmHg 75%
03:00 +31°C° 0 mm 1 mps 728 mmHg 75%
04:00 +30°C° 0 mm 1 mps 728 mmHg 75%
05:00 +30°C° 0 mm 1 mps 728 mmHg 75%
06:00 +31°C° 0.1 mm 1 mps 728 mmHg 74%
07:00 +31°C° 0.1 mm 1 mps 728 mmHg 72%
08:00 +32°C° 0.1 mm 1 mps 729 mmHg 70%
09:00 +32°C° 0.5 mm 2 mps 729 mmHg 70%
10:00 +32°C° 0.5 mm 2 mps 729 mmHg 69%
11:00 +32°C° 0.5 mm 2 mps 729 mmHg 68%
12:00 +32°C° 0.3 mm 2 mps 728 mmHg 68%
13:00 +33°C° 0.3 mm 3 mps 728 mmHg 68%
14:00 +33°C° 0.3 mm 3 mps 728 mmHg 68%
15:00 +33°C° 0 mm 3 mps 727 mmHg 68%
16:00 +32°C° 0 mm 2 mps 727 mmHg 69%
17:00 +32°C° 0 mm 2 mps 727 mmHg 69%
18:00 +33°C° 0.2 mm 3 mps 727 mmHg 71%
19:00 +31°C° 0.2 mm 3 mps 728 mmHg 73%
20:00 +31°C° 0.2 mm 3 mps 728 mmHg 75%
21:00 +31°C° 0.7 mm 3 mps 728 mmHg 77%
22:00 +30°C° 0.7 mm 2 mps 729 mmHg 79%
23:00 +30°C° 0.7 mm 2 mps 729 mmHg 80%

28 July, Wednesday

Time Temperature Precipitation Wind Pressure Humidity
00:00 +30°C° 0.7 mm 2 mps 729 mmHg 81%
01:00 +30°C° 0.7 mm 2 mps 728 mmHg 81%
02:00 +30°C° 0.7 mm 2 mps 728 mmHg 81%
03:00 +29°C° 0.5 mm 2 mps 728 mmHg 82%
04:00 +29°C° 0.5 mm 2 mps 728 mmHg 82%
05:00 +29°C° 0.5 mm 2 mps 728 mmHg 82%
06:00 +29°C° 0.8 mm 2 mps 729 mmHg 83%
07:00 +29°C° 0.8 mm 2 mps 729 mmHg 84%
08:00 +29°C° 0.8 mm 2 mps 730 mmHg 84%
09:00 +29°C° 0.2 mm 2 mps 730 mmHg 82%
10:00 +29°C° 0.2 mm 2 mps 730 mmHg 81%
11:00 +30°C° 0.2 mm 2 mps 730 mmHg 79%
12:00 +30°C° 0.1 mm 1 mps 729 mmHg 77%
13:00 +30°C° 0.1 mm 1 mps 729 mmHg 75%
14:00 +31°C° 0.1 mm 1 mps 729 mmHg 73%
15:00 +31°C° 0.1 mm 1 mps 728 mmHg 71%
16:00 +32°C° 0.1 mm 1 mps 728 mmHg 68%
17:00 +33°C° 0.1 mm 1 mps 728 mmHg 66%
18:00 +32°C° 0 mm 1 mps 728 mmHg 69%
19:00 +31°C° 0 mm 1 mps 729 mmHg 72%
20:00 +31°C° 0 mm 2 mps 729 mmHg 75%
21:00 +31°C° 0.1 mm 2 mps 729 mmHg 76%
22:00 +31°C° 0.1 mm 2 mps 729 mmHg 77%
23:00 +30°C° 0.1 mm 2 mps 729 mmHg 78%

29 July, Thursday

Time Temperature Precipitation Wind Pressure Humidity
00:00 +30°C° 1.4 mm 1 mps 729 mmHg 78%
01:00 +30°C° 1.4 mm 1 mps 728 mmHg 79%
02:00 +30°C° 1.4 mm 1 mps 728 mmHg 79%
03:00 +30°C° 0.9 mm 1 mps 728 mmHg 79%
04:00 +30°C° 0.9 mm 1 mps 728 mmHg 80%
05:00 +30°C° 0.9 mm 1 mps 728 mmHg 80%
06:00 +30°C° 1.1 mm 1 mps 729 mmHg 78%
07:00 +31°C° 1.1 mm 2 mps 729 mmHg 76%
08:00 +31°C° 1.1 mm 3 mps 729 mmHg 75%
09:00 +31°C° 0.8 mm 3 mps 730 mmHg 75%
10:00 +31°C° 0.8 mm 3 mps 730 mmHg 75%
11:00 +32°C° 0.8 mm 4 mps 730 mmHg 74%
12:00 +31°C° 0.2 mm 3 mps 730 mmHg 74%
13:00 +31°C° 0.2 mm 3 mps 729 mmHg 74%
14:00 +31°C° 0.2 mm 3 mps 729 mmHg 73%
15:00 +31°C° 0 mm 2 mps 729 mmHg 73%
16:00 +31°C° 0 mm 2 mps 729 mmHg 73%
17:00 +32°C° 0 mm 2 mps 729 mmHg 73%
18:00 +31°C° 0 mm 2 mps 729 mmHg 74%
19:00 +31°C° 0 mm 1 mps 729 mmHg 75%
20:00 +31°C° 0 mm 1 mps 729 mmHg 75%
21:00 +31°C° 0 mm 2 mps 729 mmHg 75%
22:00 +31°C° 0 mm 2 mps 729 mmHg 75%
23:00 +31°C° 0 mm 2 mps 730 mmHg 74%
Show more